Theta_e
316 315 322 328 328 331 340 349 347 345 342 340 345 348 347 346 353 342 339 341 336 340 343 341 338 338 336 338 334 333 336 335 337 337 338 341 341 340 338 334 331 329 327 327 327 328 328 328 329
314 316 326 323 325 328 334 341 346 345 336 340 345 346 347 351 345 346 344 344 332 338 342 342 339 339 337 338 337 333 335 336 337 336 338 340 341 339 336 333 331 328 329 331 332 332 332 331 329
316 320 320 318 321 327 331 342 340 338 332 331 346 346 347 349 346 344 344 342 331 338 341 342 340 339 339 339 339 334 334 336 338 338 339 340 339 337 334 332 329 329 335 339 339 338 336 335 334
324 319 315 316 317 320 323 338 338 337 331 330 344 355 347 343 346 346 345 340 330 339 341 343 342 341 340 339 340 337 335 335 338 340 339 340 338 335 334 330 328 332 340 342 340 339 338 338 338
324 315 315 317 317 319 322 335 334 337 335 330 341 352 350 342 345 348 346 340 332 342 340 342 342 342 341 340 340 340 337 335 338 340 339 339 336 335 333 330 329 334 341 337 330 332 334 332 333
317 314 315 315 317 319 321 333 334 333 333 332 356 356 356 350 349 345 345 343 338 342 340 342 342 341 342 341 341 341 341 335 337 339 339 337 335 335 331 329 329 335 341 327 322 320 323 326 325
317 315 316 316 318 319 321 326 329 329 332 327 343 356 350 352 349 348 343 344 345 346 340 342 343 342 341 341 341 341 342 336 336 336 337 335 335 334 331 329 329 337 330 321 318 320 323 324 324
316 314 316 316 318 318 320 322 322 325 327 327 338 354 348 345 344 350 343 348 349 349 339 340 342 342 341 341 340 342 342 336 335 334 335 334 334 333 330 330 329 339 323 321 319 320 323 324 324
318 315 314 316 318 318 318 319 323 325 326 327 347 347 345 342 343 351 346 353 354 352 342 338 342 343 342 340 341 342 341 335 335 335 335 334 334 332 330 333 336 339 325 322 322 322 322 323 326
317 315 317 318 318 318 318 318 320 322 323 325 347 339 338 340 343 345 346 351 352 352 348 339 340 340 341 344 343 344 340 336 334 335 334 334 333 339 342 343 342 340 327 322 325 323 324 328 329
316 316 318 319 318 320 319 319 319 320 321 322 342 341 338 338 337 345 347 342 351 351 348 346 345 340 342 345 341 342 339 337 335 334 334 333 334 342 344 343 342 341 329 335 335 332 330 327 328
317 316 317 319 319 318 320 320 319 319 321 321 344 342 339 338 340 350 348 345 345 347 346 346 346 342 343 342 335 334 335 334 334 335 336 340 336 344 344 343 342 343 338 339 338 336 329 328 328
316 316 317 317 317 317 319 320 320 318 319 320 322 346 344 344 347 351 351 347 342 344 344 344 343 340 340 342 341 331 332 335 333 335 340 342 344 342 344 344 343 344 341 340 339 334 328 326 329
316 316 316 316 315 317 319 319 320 319 319 319 319 320 323 335 345 348 348 346 343 337 342 343 343 341 340 343 342 340 337 339 340 341 341 342 346 346 343 341 341 344 346 343 340 330 329 329 328
316 315 315 316 317 318 317 317 318 318 319 318 318 320 321 323 340 344 347 344 341 336 340 340 344 342 341 346 344 344 340 342 342 342 342 343 343 345 343 340 341 342 345 342 339 335 332 327 328
315 314 315 316 317 317 317 316 319 318 318 318 319 319 321 331 342 344 343 345 345 341 338 338 343 342 340 344 349 348 343 343 343 343 344 343 344 342 342 340 342 343 346 346 345 340 335 331 329
315 314 314 317 317 317 316 315 318 318 318 317 319 321 322 333 338 342 337 337 337 347 345 344 345 343 342 342 343 347 345 346 345 344 345 345 344 343 342 342 340 344 348 348 344 339 337 335 329
314 315 315 318 320 318 317 316 319 319 319 319 320 322 326 335 335 337 335 335 334 343 341 352 348 344 344 344 342 345 348 347 349 346 345 345 343 342 342 341 339 341 345 348 345 341 338 336 331
316 316 317 319 320 320 317 319 319 318 320 320 320 321 333 334 334 339 342 342 343 340 350 353 356 350 347 351 349 349 348 348 351 349 350 348 345 344 343 342 340 340 342 341 346 342 338 336 331
317 317 318 319 320 321 320 320 320 320 320 319 320 319 333 332 334 338 344 344 344 345 344 355 356 358 355 350 354 353 353 352 350 351 350 350 348 344 344 344 342 341 343 346 347 343 340 338 336
320 320 320 320 320 320 319 319 319 321 319 319 325 325 332 333 335 341 342 343 351 353 353 350 346 360 358 358 355 354 354 355 355 354 353 351 348 345 345 344 343 340 340 343 347 346 342 339 336
320 321 321 320 319 319 320 319 319 319 318 318 327 329 330 338 341 340 341 345 348 348 349 349 351 352 359 356 357 357 358 356 356 356 354 351 350 348 346 344 342 341 341 339 341 346 346 341 338
321 320 320 321 320 320 319 317 317 319 320 318 325 326 331 339 338 337 336 339 343 343 340 344 344 348 353 356 356 355 354 356 355 354 355 351 348 346 346 344 341 341 339 344 344 346 346 343 340
323 323 321 320 317 319 320 319 319 319 321 323 325 334 338 337 336 335 335 334 336 335 336 335 335 338 344 346 348 350 349 351 351 352 352 351 348 348 347 344 343 342 343 341 345 344 347 344 341
322 322 323 323 320 321 320 321 325 331 329 326 330 334 334 334 334 334 333 331 331 334 333 332 333 333 335 336 339 342 343 344 347 348 348 349 352 349 347 346 344 343 341 340 340 348 346 345 343
323 319 323 324 325 326 324 330 340 332 326 328 324 332 329 326 326 331 330 329 331 333 332 331 330 331 331 332 334 337 336 336 339 340 343 346 348 348 350 349 347 345 343 341 343 345 347 345 342
324 323 320 321 325 326 325 327 337 332 329 327 325 323 326 326 325 322 324 328 331 331 333 333 329 329 329 329 328 330 335 336 334 336 339 341 346 346 347 350 349 347 343 341 341 340 341 344 342
322 321 326 324 328 327 325 335 337 337 330 328 326 325 322 319 321 320 320 321 323 322 321 321 322 328 328 330 328 327 329 330 335 335 335 337 338 342 345 345 349 346 344 344 348 348 346 343 342
328 328 326 323 330 333 330 336 334 332 330 329 327 324 322 321 318 316 316 315 316 316 317 317 317 319 319 320 324 327 326 328 327 329 334 337 337 337 342 344 347 345 349 349 347 346 345 343 343
326 327 328 329 329 331 329 334 331 330 327 325 324 324 322 320 319 318 315 315 315 315 315 315 315 316 317 319 319 318 321 326 324 323 326 330 338 335 336 341 342 342 343 343 342 342 342 341 339
Wind_Speed
19 17 13 3 3 2 3 6 17 13 5 3 7 11 11 5 3 5 20 28 37 40 33 30 30 28 26 24 23 22 20 18 16 14 13 12 11 11 10 10 9 9 8 8 7 6 6 5 4
16 15 6 2 2 2 5 6 7 16 2 12 19 19 6 4 2 4 9 29 43 40 35 31 30 28 26 23 22 22 20 18 17 15 12 10 9 9 8 8 8 7 7 7 6 5 5 3 2
14 6 2 3 3 9 5 6 9 9 2 4 7 8 7 2 5 4 24 34 40 38 35 33 31 29 26 24 22 21 20 18 16 15 13 10 8 7 6 6 6 6 6 6 6 6 5 4 2
5 4 4 1 11 19 9 9 4 2 4 6 15 12 7 12 19 12 32 34 39 36 35 33 30 29 28 25 23 21 20 18 15 14 12 9 7 6 5 5 5 5 6 6 6 5 4 3 2
6 2 2 4 11 15 15 7 6 3 1 5 13 13 16 10 25 17 34 33 37 32 33 33 31 29 28 26 24 22 20 18 16 14 13 10 7 5 4 4 4 4 4 4 4 3 3 3 4
3 3 3 6 10 11 11 10 8 4 2 7 18 10 6 5 1 19 33 32 34 33 33 32 29 29 28 28 26 23 21 19 16 14 12 10 8 6 4 3 3 3 3 3 2 2 2 3 4
5 1 7 10 13 12 9 7 8 7 6 5 9 7 4 12 13 9 29 34 37 31 34 33 30 28 27 28 27 25 22 21 18 16 14 11 9 6 4 3 2 2 2 2 2 1 1 3 4
4 3 9 8 9 13 8 3 6 7 5 8 7 6 6 7 17 12 23 33 37 33 34 34 32 30 28 28 27 26 24 22 20 18 16 13 10 7 4 2 2 2 2 2 2 1 2 5 7
5 2 6 10 9 10 8 9 5 1 5 6 5 7 10 21 15 12 14 33 33 31 35 35 32 30 29 30 28 26 25 23 19 18 16 14 11 8 5 3 2 1 1 1 1 1 3 7 8
3 2 9 13 11 8 9 10 10 6 5 3 5 6 10 25 12 6 24 27 30 33 32 39 35 33 29 25 28 27 26 25 22 20 18 15 12 10 6 6 4 3 2 2 3 2 1 5 12
8 7 9 18 12 8 9 9 7 9 4 5 8 9 9 8 9 11 21 28 32 33 28 31 31 32 29 25 28 27 25 23 21 20 18 15 12 13 13 11 9 7 8 6 4 1 2 3 6
6 11 10 16 11 8 6 5 10 5 6 7 15 17 12 12 11 13 19 30 30 36 34 30 27 28 28 27 28 28 25 23 22 20 17 15 17 13 20 14 12 11 11 9 8 6 6 5 3
7 11 11 12 12 7 6 5 5 9 11 9 2 15 18 17 13 19 15 15 21 16 24 34 32 30 33 30 27 29 27 24 23 22 20 17 14 16 16 16 11 16 14 12 13 12 8 4 3
8 10 10 9 11 6 4 6 3 7 10 9 10 6 9 11 14 21 19 32 37 16 9 34 38 35 37 32 32 28 28 23 23 23 21 21 18 16 13 15 12 12 8 18 13 13 8 4 1
9 10 13 12 7 6 6 6 7 9 9 10 12 8 6 3 7 21 29 35 49 48 49 22 35 41 40 26 29 27 29 28 28 28 25 24 21 20 17 16 13 11 10 14 10 7 5 5 6
9 8 5 9 11 10 7 9 8 11 9 11 10 8 7 8 7 19 36 42 32 29 18 13 13 40 34 34 24 28 27 24 28 30 29 27 27 23 20 19 16 14 10 14 10 9 7 8 6
5 8 12 14 11 11 13 9 9 12 6 11 8 7 3 7 9 16 13 19 34 33 33 38 38 40 34 32 28 21 19 17 18 21 21 26 28 26 23 20 18 12 14 12 14 14 11 6 7
8 7 10 11 13 9 12 8 8 10 8 11 8 5 8 10 8 15 21 16 7 11 5 32 26 33 34 29 29 25 18 18 16 21 25 24 27 24 25 21 24 20 15 12 18 16 15 11 6
12 17 17 16 17 12 10 8 7 9 3 7 8 5 13 12 8 21 22 17 15 14 7 14 20 27 27 24 23 22 22 20 15 18 15 21 27 27 23 25 22 21 18 20 14 18 17 14 10
12 14 15 15 15 5 6 6 7 6 4 7 10 9 14 9 9 12 23 20 15 15 13 7 11 14 21 27 24 22 19 20 23 19 22 18 24 28 26 24 23 22 17 17 15 20 14 12 12
12 9 9 9 12 7 7 5 6 4 7 5 3 11 11 12 10 11 15 19 27 30 29 16 9 6 15 18 22 21 21 21 19 22 27 27 19 25 26 25 23 25 21 20 15 18 18 17 17
7 9 13 10 6 9 2 6 6 6 11 8 8 16 14 14 14 13 13 20 25 29 27 27 17 9 10 13 13 14 16 14 16 13 26 28 26 27 26 24 25 27 22 26 26 24 22 21 20
17 10 11 7 6 3 12 2 7 6 9 10 10 11 13 18 18 16 15 22 27 31 26 22 25 24 14 4 9 7 8 11 13 17 13 27 28 24 25 27 26 27 32 24 27 28 29 26 24
18 14 9 4 4 7 5 6 7 9 6 5 9 19 20 18 18 17 24 28 28 28 25 24 27 26 22 19 13 12 10 7 8 11 10 17 23 23 22 23 26 29 27 31 23 26 31 27 28
19 3 5 7 3 6 7 4 6 16 24 3 17 16 18 16 16 17 16 20 27 22 22 21 24 26 26 26 26 22 21 17 12 12 12 10 10 22 25 26 30 31 34 33 29 27 29 30 28
9 4 4 6 6 3 6 2 2 10 20 26 29 12 14 10 13 14 15 25 24 18 18 19 21 21 21 21 22 23 23 21 18 16 13 11 11 12 16 28 30 31 31 31 28 27 25 30 31
6 5 9 9 4 3 4 4 1 15 22 22 24 25 20 8 8 9 19 24 23 16 15 15 17 18 17 17 18 18 18 19 19 18 16 14 13 13 13 15 28 27 26 25 29 32 29 24 27
1 1 4 6 0 4 3 1 6 1 8 13 20 19 21 22 15 5 14 19 24 22 22 22 22 16 16 14 15 15 15 15 16 18 18 16 14 13 14 12 22 26 23 23 24 23 22 24 21
6 4 3 4 3 2 3 1 5 5 8 7 7 9 13 18 8 12 13 25 30 27 24 20 23 18 18 17 15 12 12 12 13 15 16 17 17 14 13 10 10 18 18 22 21 18 18 20 19
9 3 3 2 4 5 3 0 4 9 10 11 6 3 6 6 12 15 17 23 25 25 23 22 23 20 21 18 15 16 15 10 11 12 13 16 14 14 12 12 13 11 14 17 15 19 19 21 17
Wind_Direction
301 306 312 281 40 72 278 179 247 313 68 31 105 104 122 146 139 104 133 155 154 151 154 156 157 155 152 147 144 143 141 134 132 127 120 113 106 99 94 88 85 83 82 80 77 70 66 66 77
302 314 271 244 144 288 273 243 89 289 40 110 99 124 79 74 358 305 106 149 154 153 155 157 159 157 156 152 149 149 149 144 140 138 133 122 111 100 91 82 76 75 73 72 69 67 63 54 51
298 292 69 161 220 240 249 246 222 203 187 348 81 62 96 250 356 274 164 157 153 155 157 158 161 161 160 157 155 154 155 151 146 145 143 136 125 113 97 81 71 69 66 61 55 51 51 53 37
297 347 331 138 254 268 231 206 203 16 98 25 134 106 85 275 158 187 152 154 153 158 160 158 162 163 162 162 160 160 160 158 154 154 152 146 139 127 109 92 80 67 59 50 43 38 37 33 13
268 312 253 265 256 261 267 214 138 150 183 99 92 130 155 169 205 195 156 151 157 163 164 161 164 164 165 165 165 165 165 165 163 161 159 158 151 141 119 101 91 78 61 40 31 26 11 357 334
312 115 344 267 269 275 283 165 160 140 52 61 103 102 121 260 29 150 156 156 162 165 169 164 167 166 167 169 169 170 170 170 169 168 168 167 164 158 145 119 99 86 55 26 28 13 351 331 322
199 49 252 271 286 300 294 152 157 157 114 73 137 95 165 182 73 118 160 156 160 165 171 168 168 169 168 170 172 173 174 174 174 176 176 176 176 173 163 140 115 90 33 37 65 66 339 297 303
196 123 293 281 284 286 319 73 108 86 73 141 126 153 184 219 143 131 165 154 160 165 173 173 171 171 170 172 175 176 177 179 180 181 183 183 184 184 179 161 127 78 37 61 65 65 313 299 309
289 320 263 271 281 296 340 11 18 46 91 86 117 150 202 170 169 167 164 144 146 164 171 177 175 176 175 175 177 180 181 183 186 187 188 189 191 189 194 177 167 183 40 70 58 84 11 332 325
190 205 240 252 270 319 334 17 338 36 30 60 70 41 178 173 194 159 170 159 158 162 172 178 179 177 178 177 180 184 186 187 189 192 194 197 197 187 206 202 247 223 200 169 111 96 3 357 353
251 233 258 275 278 290 323 348 330 337 12 310 167 181 205 218 226 224 172 175 166 161 163 176 181 179 174 179 183 184 191 194 196 196 202 204 199 202 221 206 224 223 189 174 152 124 82 27 15
253 260 237 265 279 306 315 338 323 359 289 318 151 175 188 214 227 207 187 187 154 157 163 176 185 181 176 186 186 187 195 199 200 203 205 204 207 215 210 212 235 227 203 195 182 173 121 78 19
254 254 255 253 277 267 308 293 268 310 308 330 65 176 191 199 210 208 188 138 93 107 163 177 183 186 184 193 190 192 197 201 210 207 206 206 202 217 225 218 237 239 227 216 212 174 148 106 4
272 299 291 288 273 279 249 257 283 280 296 299 299 267 198 194 201 213 123 131 135 137 234 190 190 187 188 192 195 193 196 198 206 206 202 206 207 219 216 222 226 215 245 227 194 156 130 138 77
302 305 297 292 273 260 283 276 246 240 245 260 251 248 272 359 84 88 115 132 153 171 206 213 190 190 188 180 195 197 195 201 206 210 206 203 201 207 222 220 224 217 178 161 161 151 134 107 157
331 309 289 282 264 266 191 254 228 260 220 247 246 207 219 73 100 115 122 132 157 174 186 247 226 197 192 181 175 197 194 199 207 211 209 209 204 204 209 221 223 223 242 206 197 183 181 211 218
284 265 276 278 243 243 203 237 242 253 218 223 216 168 222 91 98 100 96 135 137 149 165 186 237 193 194 194 190 184 189 190 201 208 209 213 210 207 208 217 227 229 216 213 192 187 187 188 196
263 252 254 251 274 248 232 206 234 254 290 204 162 170 92 101 109 119 110 96 95 127 171 173 181 189 193 195 201 202 199 204 215 222 224 221 214 210 211 218 223 230 224 201 200 198 197 200 196
253 273 282 289 289 318 172 179 236 252 237 137 152 178 120 113 105 90 108 108 76 61 75 180 160 191 193 185 194 206 212 222 230 235 231 224 218 208 210 217 221 223 244 232 214 196 176 187 202
259 258 273 283 285 306 298 233 218 273 268 200 177 173 136 125 117 103 95 84 77 55 46 99 181 176 188 196 189 192 203 222 234 238 241 240 216 211 214 217 220 227 236 222 227 205 192 200 205
261 271 273 264 307 317 318 293 221 237 298 273 99 116 124 133 124 106 94 80 76 56 44 47 46 179 181 183 198 206 221 224 223 231 234 229 212 210 218 218 222 229 237 229 220 217 214 205 207
245 257 273 273 285 285 52 285 276 220 245 264 143 118 127 108 96 84 75 72 71 62 49 44 51 59 183 206 214 208 215 213 230 252 229 222 230 226 215 215 220 223 229 233 232 227 223 214 217
275 233 259 278 260 267 277 266 271 268 243 232 162 136 113 113 107 93 80 83 80 69 56 50 54 56 70 131 224 251 249 249 258 252 278 230 229 232 226 224 220 232 232 234 227 226 231 227 224
282 275 257 273 241 263 238 212 275 277 277 178 148 125 119 114 108 102 90 81 80 79 69 57 56 55 59 55 49 43 33 0 317 317 350 225 225 226 225 227 229 231 237 236 237 232 229 228 227
347 262 282 253 279 225 229 252 82 10 1 229 135 119 115 115 112 104 98 89 79 76 80 71 64 56 57 55 49 43 37 28 4 346 348 339 234 231 227 225 227 231 231 234 236 232 227 226 225
322 43 269 219 219 269 354 324 59 44 25 21 31 27 74 71 85 110 111 100 100 100 106 96 84 76 64 58 54 47 37 31 21 9 352 334 307 300 271 238 236 237 237 234 235 234 234 231 229
280 303 321 296 138 66 217 227 64 26 35 28 23 28 10 30 75 70 109 119 119 106 108 103 95 89 80 66 57 52 42 30 26 12 3 349 332 302 287 272 233 236 234 235 237 241 244 232 228
263 270 7 357 109 222 221 127 228 352 59 33 34 22 14 11 21 355 73 93 95 71 54 52 47 59 62 73 61 52 41 29 22 15 12 1 342 317 295 270 245 231 227 225 222 223 225 230 240
344 15 15 183 115 300 312 133 308 336 113 79 75 31 28 327 28 352 41 60 63 55 52 37 26 38 32 36 44 43 38 27 18 14 8 359 358 342 300 278 239 237 213 216 221 230 238 241 253
112 18 68 319 315 234 216 202 114 129 148 146 159 209 145 288 334 317 36 51 53 50 39 25 16 25 21 15 7 5 5 358 359 356 359 8 352 348 336 289 264 245 259 251 247 246 244 244 254